Retour au catalogue

ALSAT 2A

ActifScienceSSO
NORAD 36798·PAYLOAD·🇩🇿 Algeria

Lancé Jul 12, 2010 depuis Satish Dhawan Space Centre

Loading…

Prochains Passages (prochaines 24 heures)

TLE

FraisSource: Space-Track

Époque: Sep 14, 2026, 14:09 UTC

1 36798U 10035D   26257.58998833  .00000503  00000-0  82599-4 0  9992
2 36798  97.7681 256.4957 0001214  63.5247 296.6087 14.74590847866935

Suivez ALSAT 2A en temps réel avec AllMySat

Download on the App Store